Location: Eaton Estates
(41.3089°N, 82.0057°W)
Time: 10:23:27
(UTC+00:00)

Tiangong - Pass Details

Date: 09 December 2022
Orbit: 383 x 386 km, 41.5° (Epoch: 04 February)

Event Time Altitude Azimuth Distance (km) Brightness Sun altitude
Rises 22:35:09 0° 278° (W) 2,252 2.8 -6.9°
Reaches altitude 10° 22:37:13 10° 277° (W) 1,398 1.7 -7.3°
Maximum altitude 22:40:21 72° 193° (SSW) 403 -1.9 -7.8°
Drops below altitude 10° 22:43:30 10° 108° (ESE) 1,396 0.2 -8.4°
Enters shadow 22:44:13 - 107° (ESE) 1,687 0.7 -8.5°
